Torna al catalogo

STARLINK-34168

AttivoComunicazioniVLEO
NORAD 64079·PAYLOAD·🇺🇸 United States

Lanciato May 21, 2025 da Cape Canaveral Space Force Station

Loading…

Prossimi Passaggi (prossime 24 ore)

TLE

AggiornatoSource: CelesTrak SupGP

Epoca: Sep 14, 2026, 22:46 UTC

1 64079C 25107R   26257.94909722 -.00000739  00000+0 -26782-4 0  2571
2 64079  43.0013 212.4148 0001207 258.2744 280.6670 15.27576539    13

Traccia STARLINK-34168 in tempo reale con AllMySat

Download on the App Store